Погода в Лимане

Погода в Лимане : погода сейчас, прогноз погоды и архив. Всё, что Вы хотите узнать о погоде в Лимане!

Хотите узнать прогноз погоды в Лимане? Тогда Вам сюда: Погода в Лимане

Поиск расширенной информации на нашем сайте:

Другие новости

Новости СМИ2

Главная страница сайта

Новости сайта

03.07.2017

Напоминаем, что на нашем специализированном сайте Метеоцентр.Азия вы можете получить высокодетализированные автоматические прогнозы погоды по пунктам России, СНГ и мира в авиационном формате (включающие направление и скорость ветра, видимость, явления погоды, количество и форму облачности, нижнюю и верхнюю границу облачности).


Погода в Лимане - сегодня

Время (UTC), дата Ветер
(°,м/с) 
Видим.   Явления Облачность Т
(°С)
Тd
(°С)
f(%) Тe
(°С)
Pmin
(гПа)
dP
(гПа)
Po
(мм)
O2
(г/м3)
Тmin Tmax R s Состояние
почвы
03 21.04.18 250 (З) 20000 м    10/10 600 м 
[Sc]
+9.6 +7.5 87 +9  1006.7  756  293  +7.9        сухая 
06 21.04.18 280 (З) 20000 м    9/9 600 м 
[Sc diur, vesp]
+12.8 +7.8 72 +12  1008.3  1.6  758  290           
09 21.04.18 320 (СЗ) 6-11{11}  20000 м  пыльный позёмок  9/9 600 м кучево-дожд. 
[Cb cap]
+15 +7.3 60 +14  1009.2  0.9  758  288           
15 21.04.18 310 (СЗ) 20000 м    1/1 600 м 
[Sc diur, vesp]
+14.9 +1.9 41 +15  1010.6  759  290    +15.4  0.0     
00 22.04.18 200 (Ю) 20000 м    ясно 
+4.9 +2.7 86 +5  1010.6  -1.2  759  300           
06 22.04.18 230 (ЮЗ) 4-10{10}  20000 м    4/0 средняя, верхняя 
[Ac trans|Ci]
+16 +5.6 50 +16  1008.1  -1.6  757  287           
09 22.04.18 240 (ЮЗ) 5-11{13}  20000 м  пыльный позёмок  10/3 600 м верхняя 
[Cu Sc|Cs]
+19.8 +0.2 27 +20  1006.3  -1.8  756  284           
12 22.04.18 270 (З) 6-12{13}  20000 м  пыльный позёмок  10/6 600 м верхняя 
[Sc diur, vesp|Cs]
+19 +2.8 34 +19  1005.6  -0.7  756  284           
15 22.04.18 210 (ЮЗ) 20000 м  в посл. час ливневой дождь  10/10 600 м кучево-дожд. 
[Cb cap]
+11.8 +9.7 87 +13  1006.2  0.7  756  290    +20.9  0.8     
18 22.04.18 200 (Ю) 20000 м  {ливн. осадки}  4/4 600 м 
[Sc]
+12.2 +8.6 79 +12  1006.7  0.5  756  290           
21 22.04.18 210 (ЮЗ) 20000 м    ясно 
+8.9 +6.2 83 +9  1007.2  0.5  757  294           
00 23.04.18 200 (Ю) 20000 м    3/3 600 м 
[Sc]
+8.5 +5.7 83 +9  1006.9  -0.3  757  295           
03 23.04.18 230 (ЮЗ) 20000 м    3/0 верхняя 
[Ci sp]
+7.7 +4.3 79 +7  1007.8  0.9  757  296  +7.4        влажная 
12 23.04.18 260 (З) 6-10{13}  20000 м  пыльный позёмок  8/3 600 м верхняя 
[Cu Sc|Ci]
+16.6 +0.2 33 +16  1009.2  0.2  758  288           
15 23.04.18 290 (З) 4{12}  20000 м    10/1 600 м верхняя 
[Sc diur, vesp|Cs]
+14.1 +2 44 +14  1010.3  1.1  759  291    +18.5       
18 23.04.18 280 (З) 20000 м    9/9 600 м 
[Sc]
+10.9 +4.2 63 +11  1013  2.8  761  294           
21 23.04.18 320 (СЗ) 20000 м    9/9 600 м 
[Sc]
+7.5 +4.5 81 +7  1013.9  0.9  762  298           
00 24.04.18 350 (С) 20000 м    9/9 600 м 
[Sc]
+6.7 +1.4 69 +7  1016.3  2.4  764  300           
03 24.04.18 тихо ()   20000 м    1/1 600 м 
[Sc]
+6.1 +1.8 74 +6  1017.9  1.6  765  301  +2.4        сухая 
06 24.04.18 300 (СЗ) 20000 м    ясно 
+10.3 -5.2 33 +10  1019.9  766  298           
09 24.04.18 280 (З) 5{11}  20000 м    1/1 600 м 
[Cu med, cong]
+12.7 -6.5 26 +12  1020.2  0.3  767  296           
12 24.04.18 280 (З) 4{11}  20000 м    ясно 
+14.5 -7 22 +14  1019.8  -0.4  766  294           
15 24.04.18 260 (З) 20000 м    ясно 
+14.1 -6.8 23 +14  1019.6  -0.2  766  294    +15       
18 24.04.18 тихо ()   20000 м    ясно 
+7.3 -5.2 41 +7  1020.6  767  302           
21 24.04.18 160 (Ю) 20000 м    ясно 
+6.3 -3.3 50 +7  1020.1  -0.5  767  302           
Время (UTC), дата Ветер
(°,м/с) 
Видим.   Явления Облачность Т
(°С)
Тd
(°С)
f(%) Тe
(°С)
Pmin
(гПа)
dP
(гПа)
Po
(мм)
O2
(г/м3)
Тmin Tmax R s Состояние
почвы

Для получения пояснительной информации подведите курсор к названию столбца.

ПОГОДА в Лимане - архив

Всё, что Вы хотите узнать о погоде в Лимане - удобно и подробно!

Выберите нужную дату (начиная с 1 января 2015* года) и нажмите кнопку "Найти".
Будут отображены архивные сводки погоды по пункту Лиман, начиная с указанной даты.


Отображать данные в формате CSV (для использования в таблицах Excel)


Внимание! Наш архив погоды предназначен исключительно для личного некоммерческого использования в познавательных целях. Если Вам необходимы официальные справки о состоянии погоды (для производственных, юридических, коммерческих и т.п. целей), обращайтесь в органы Росгидромета.

*Примечание: данная дата относится к архиву по метеостанциям СССР (Россия, СНГ, Балтия).
Архив по метеостанциям Зарубежной Европы и Азии (кроме Китая) хранится 10 дней, по другим регионам земного шара (Китай, Африка, Америка, Австралия, Океания) - 1 день.

Лиман - район местоположения метеостанции


Название, широта, долгота, высота метеостанции:
Лиман 45.8°ш. 47.2°д. -18 м над ур. моря [Российская Федерация]

Дополнительная информация

В oтличие oт бoльшинства пoгoдных сайтoв мы публикуем пoдрoбную метеoинфoрмацию в детальнoм прoфессиoнальнoм фoрмате.

Характеристики температуры и влажнoсти вoздуха измеряются на высoте 2 м в тени вдали oт зданий и деревьев.
Скoрoсть ветра измеряется на высoте 10 м (на урoвне рoста челoвека скoрoсть ветра ниже в 1.5-2 раза). Если метеoстанция нахoдится в гoрoде или в лесу, тo скoрoсть ветра занижена на 2-4 м/с пo сравнению с oткрытым местoм. Скoрoсть ветра над акватoриями крупных рек и oзёр, а также на вершинах хoлмoв на 2-5 м/с выше, чем в oбычных услoвиях.
Атмoсфернoе давление в разных тoчках местнoсти мoжет значительнo oтличаться oт давления на метеoстанции, в зависимoсти oт услoвий рельефа (при пoдъёме на 10 м давление пoнижается примернo на 1 мм рт.ст.).